Weather History for Wellsville, NY

Change the Weather History Date:

Friday, November 2, 2012

  Actual Average (KBFD) Record (KBFD)
Temperature  
Mean Temperature 34 °F 42 °F  
Max Temperature 37 °F 51 °F 73 °F (1982)
Min Temperature 32 °F 32 °F 15 °F (1976)
Degree Days  
Heating Degree Days 30 19  
Month to date heating degree days 37  
Since 1 July heating degree days 1030  
Cooling Degree Days 0 0  
Month to date cooling degree days 0  
Year to date cooling degree days 193  
Moisture  
Dew Point 30 °F    
Average Humidity 84    
Maximum Humidity 93    
Minimum Humidity 70    
Precipitation  
Precipitation 0.09 in 0.12 in 1.21 in (1972)
Month to date precipitation 0.23  
Year to date precipitation 37.53  
Sea Level Pressure  
Sea Level Pressure 29.71 in    
Wind  
Wind Speed 11 mph (WNW)    
Max Wind Speed 17 mph    
Max Gust Speed 28 mph    
Visibility 7 miles    
Events Rain , Snow    
T = Trace of Precipitation, MM = Missing Value Source: NWS Daily Summary

Daily Weather History Graph

Daily Weather History Graph

Search for Another Location

Airport:

Trip Planner

Search our weather history database for the weather conditions in past years. The results will help you decide how hot, cold, wet, or windy it might be!

Date:

Astronomy

Nov. 02, 2012 Rise Set
Actual Time 7:46 AM EDT 6:03 PM EDT
Civil Twilight 7:17 AM EDT 6:32 PM EDT
Nautical Twilight 6:44 AM EDT 7:06 PM EDT
Astronomical Twilight 6:11 AM EDT 7:38 PM EDT
Moon 8:47 PM EDT (11/2) 11:07 AM EDT (11/2)
Length of Visible Light 11h 15m
Length of Day
10h 17m
Waning Gibbous, 87% of the Moon is Illuminated
Nov 2
Waning Gibbous
Nov 6
Last Quarter
Nov 13
New
Nov 20
First Quarter
Nov 28
Full

Hourly Weather History & Observations

Time (EDT) Temp. Windchill Dew Point Humidity Pressure Visibility Wind Dir Wind Speed Gust Speed Precip Events Conditions
12:13 AM 37.4 °F 29.3 °F 33.8 °F 87% 29.62 in 10.0 mi West 12.7 mph 16.1 mph 0.00 in   Overcast
12:56 AM 36.0 °F 27.5 °F 33.1 °F 89% 29.67 in 10.0 mi West 12.7 mph 17.3 mph 0.01 in Rain Light Rain
1:10 AM 35.6 °F 29.2 °F 33.8 °F 93% 29.62 in 10.0 mi West 8.1 mph - 0.00 in Rain Light Rain
1:15 AM 35.6 °F 27.5 °F 33.8 °F 93% 29.62 in 10.0 mi West 11.5 mph - 0.00 in   Overcast
1:56 AM 36.0 °F 29.0 °F 32.0 °F 86% 29.66 in 10.0 mi West 9.2 mph - 0.00 in   Overcast
2:56 AM 36.0 °F 29.0 °F 32.0 °F 86% 29.67 in 10.0 mi West 9.2 mph - N/A   Overcast
3:07 AM 35.6 °F 29.9 °F 32.0 °F 87% 29.62 in 10.0 mi West 6.9 mph - N/A   Overcast
3:15 AM 35.6 °F 28.0 °F 32.0 °F 87% 29.62 in 10.0 mi West 10.4 mph - N/A   Overcast
3:26 AM 35.6 °F 27.1 °F 32.0 °F 87% 29.62 in 9.0 mi West 12.7 mph 17.3 mph 0.00 in Rain Light Rain
3:33 AM 35.6 °F 27.1 °F 32.0 °F 87% 29.62 in 7.0 mi WNW 12.7 mph - 0.00 in Snow Light Snow
3:49 AM 35.6 °F 29.2 °F 32.0 °F 87% 29.62 in 10.0 mi West 8.1 mph - 0.00 in   Overcast
3:56 AM 36.0 °F 29.0 °F 32.0 °F 86% 29.66 in 10.0 mi West 9.2 mph - 0.00 in   Overcast
4:21 AM 35.6 °F 29.2 °F 32.0 °F 87% 29.62 in 7.0 mi West 8.1 mph - 0.01 in Snow Light Snow
4:33 AM 35.6 °F 29.9 °F 32.0 °F 87% 29.62 in 5.0 mi West 6.9 mph - 0.01 in Snow Light Snow
4:56 AM 35.1 °F 27.4 °F 32.0 °F 89% 29.66 in 10.0 mi West 10.4 mph - 0.01 in   Overcast
5:56 AM 34.0 °F 26.6 °F 32.0 °F 92% 29.67 in 3.0 mi NW 9.2 mph - 0.01 in Snow Light Snow
6:00 AM 33.8 °F 27.7 °F 30.2 °F 87% 29.62 in 1.8 mi NW 6.9 mph - 0.01 in Snow Light Snow
6:10 AM 33.8 °F 26.4 °F 30.2 °F 87% 29.62 in 2.0 mi WNW 9.2 mph - 0.02 in Snow Light Snow
6:12 AM 33.8 °F 27.0 °F 30.2 °F 87% 29.62 in 3.0 mi WNW 8.1 mph - 0.02 in Snow Light Snow
6:21 AM 33.8 °F 23.5 °F 30.2 °F 87% 29.62 in 5.0 mi WNW 16.1 mph 21.9 mph 0.02 in Snow Light Snow
6:34 AM 33.8 °F 24.3 °F 30.2 °F 87% 29.62 in 7.0 mi WNW 13.8 mph - 0.02 in Snow Light Snow
6:56 AM 34.0 °F 27.2 °F 30.9 °F 89% 29.66 in 10.0 mi West 8.1 mph - 0.02 in   Overcast
7:56 AM 35.1 °F 27.4 °F 30.9 °F 85% 29.67 in 10.0 mi West 10.4 mph - N/A   Overcast
8:17 AM 33.8 °F 24.3 °F 30.2 °F 87% 29.63 in 2.5 mi West 13.8 mph 20.7 mph 0.00 in Snow Light Snow
8:25 AM 33.8 °F 25.8 °F 30.2 °F 87% 29.63 in 1.8 mi West 10.4 mph - 0.00 in Snow Light Snow
8:39 AM 33.8 °F 25.8 °F 30.2 °F 87% 29.64 in 2.0 mi WNW 10.4 mph - 0.01 in Snow Light Snow
8:47 AM 33.8 °F 27.0 °F 30.2 °F 87% 29.64 in 9.0 mi West 8.1 mph - 0.01 in   Overcast
8:56 AM 34.0 °F 27.2 °F 30.9 °F 89% 29.70 in 1.8 mi West 8.1 mph - 0.01 in Snow Light Snow
9:04 AM 33.8 °F 27.0 °F 32.0 °F 93% 29.65 in 3.0 mi WNW 8.1 mph - 0.00 in Snow Light Snow
9:18 AM 33.8 °F 27.0 °F 32.0 °F 93% 29.65 in 4.0 mi NW 8.1 mph - 0.00 in Snow Light Snow
9:56 AM 35.1 °F 26.9 °F 30.9 °F 85% 29.72 in 7.0 mi NW 11.5 mph - 0.00 in Snow Light Snow
10:09 AM 35.6 °F 28.6 °F 30.2 °F 81% 29.67 in 10.0 mi NW 9.2 mph - 0.00 in   Overcast
10:56 AM 35.1 °F 27.4 °F 30.9 °F 85% 29.73 in 10.0 mi NW 10.4 mph 17.3 mph 0.00 in   Overcast
11:18 AM 35.6 °F 26.2 °F 30.2 °F 81% 29.68 in 2.5 mi NW 15.0 mph 19.6 mph 0.00 in Snow Light Snow
11:27 AM 33.8 °F 26.4 °F 30.2 °F 87% 29.69 in 3.0 mi NW 9.2 mph - 0.01 in Snow Light Snow
11:32 AM 33.8 °F 24.3 °F 30.2 °F 87% 29.69 in 1.8 mi NW 13.8 mph 18.4 mph 0.01 in Snow Light Snow
11:38 AM 33.8 °F 25.3 °F 30.2 °F 87% 29.69 in 2.0 mi NW 11.5 mph - 0.01 in Snow Light Snow
11:46 AM 35.6 °F 27.1 °F 30.2 °F 81% 29.69 in 9.0 mi NW 12.7 mph - 0.01 in   Overcast
11:56 AM 36.0 °F 26.7 °F 30.0 °F 79% 29.74 in 10.0 mi NW 15.0 mph 18.4 mph 0.01 in   Overcast
12:56 PM 36.0 °F 27.5 °F 30.0 °F 79% 29.74 in 10.0 mi WNW 12.7 mph - N/A   Overcast
1:20 PM 35.6 °F 25.9 °F 28.4 °F 75% 29.69 in 10.0 mi NW 16.1 mph 27.6 mph N/A   Overcast
1:29 PM 35.6 °F 27.1 °F 28.4 °F 75% 29.69 in 10.0 mi WNW 12.7 mph - N/A   Overcast
1:45 PM 35.6 °F 27.1 °F 28.4 °F 75% 29.70 in 10.0 mi WNW 12.7 mph 23.0 mph N/A   Overcast
1:52 PM 35.6 °F 27.1 °F 28.4 °F 75% 29.70 in 10.0 mi WNW 12.7 mph 23.0 mph N/A   Overcast
1:56 PM 35.1 °F 24.8 °F 28.0 °F 76% 29.75 in 10.0 mi WNW 17.3 mph 21.9 mph N/A   Overcast
2:56 PM 35.1 °F 25.9 °F 27.0 °F 72% 29.77 in 10.0 mi WNW 13.8 mph - N/A   Overcast
3:12 PM 35.6 °F 27.1 °F 26.6 °F 70% 29.72 in 10.0 mi WNW 12.7 mph 21.9 mph N/A   Overcast
3:35 PM 35.6 °F 26.2 °F 26.6 °F 70% 29.73 in 10.0 mi WNW 15.0 mph 21.9 mph N/A   Overcast
3:56 PM 35.1 °F 25.5 °F 27.0 °F 72% 29.78 in 10.0 mi WNW 15.0 mph - 0.00 in   Overcast
4:35 PM 33.8 °F 24.3 °F 28.4 °F 81% 29.74 in 4.0 mi WNW 13.8 mph - 0.00 in Snow Light Snow
4:56 PM 34.0 °F 25.5 °F 28.0 °F 79% 29.81 in 4.0 mi WNW 11.5 mph - 0.00 in Snow Light Snow
5:07 PM 33.8 °F 25.3 °F 28.4 °F 81% 29.75 in 2.5 mi WNW 11.5 mph - 0.00 in Snow Light Snow
5:22 PM 33.8 °F 25.8 °F 28.4 °F 81% 29.76 in 1.0 mi WNW 10.4 mph - 0.01 in Snow Light Snow
5:36 PM 33.8 °F 25.3 °F 30.2 °F 87% 29.76 in 1.0 mi WNW 11.5 mph - 0.01 in Snow Light Snow
5:43 PM 33.8 °F 24.3 °F 30.2 °F 87% 29.77 in 2.0 mi WNW 13.8 mph 21.9 mph 0.01 in Snow Light Snow
5:52 PM 33.8 °F 24.3 °F 28.4 °F 81% 29.77 in 7.0 mi NW 13.8 mph 21.9 mph 0.01 in Snow Light Snow
5:56 PM 33.1 °F 23.0 °F 28.9 °F 85% 29.83 in 8.0 mi WNW 15.0 mph 21.9 mph 0.01 in Snow Light Snow
6:11 PM 33.8 °F 23.9 °F 28.4 °F 81% 29.77 in 9.0 mi WNW 15.0 mph - 0.00 in   Overcast
6:56 PM 34.0 °F 25.0 °F 28.9 °F 82% 29.85 in 10.0 mi NW 12.7 mph - 0.00 in Rain Light Rain
7:29 PM 33.8 °F 26.4 °F 30.2 °F 87% 29.80 in 10.0 mi WNW 9.2 mph - 0.00 in Rain Light Rain
7:56 PM 34.0 °F 25.0 °F 28.9 °F 82% 29.86 in 10.0 mi WNW 12.7 mph 21.9 mph 0.00 in   Overcast
8:15 PM 33.8 °F 25.3 °F 28.4 °F 81% 29.81 in 10.0 mi NW 11.5 mph 21.9 mph 0.00 in Rain Light Rain
8:25 PM 33.8 °F 25.8 °F 28.4 °F 81% 29.81 in 10.0 mi NW 10.4 mph - 0.00 in   Overcast
8:56 PM 33.1 °F 23.9 °F 28.0 °F 82% 29.88 in 10.0 mi NW 12.7 mph - 0.00 in   Overcast
9:46 PM 33.8 °F 25.8 °F 28.4 °F 81% 29.83 in 8.0 mi NW 10.4 mph 23.0 mph 0.00 in Rain Light Rain
9:56 PM 33.1 °F 23.9 °F 28.0 °F 82% 29.88 in 10.0 mi NW 12.7 mph 26.5 mph 0.01 in Rain Light Rain
10:10 PM 33.8 °F 24.3 °F 28.4 °F 81% 29.83 in 10.0 mi NW 13.8 mph 21.9 mph N/A   Overcast
10:56 PM 33.1 °F 23.0 °F 27.0 °F 78% 29.90 in 10.0 mi NW 15.0 mph 21.9 mph N/A   Overcast
11:04 PM 32.0 °F 22.1 °F 26.6 °F 80% 29.84 in 10.0 mi NW 13.8 mph 21.9 mph N/A   Overcast
11:13 PM 32.0 °F 21.2 °F 26.6 °F 80% 29.84 in 10.0 mi WNW 16.1 mph 24.2 mph N/A   Overcast
11:56 PM 32.0 °F 20.8 °F 27.0 °F 82% 29.90 in 10.0 mi WNW 17.3 mph - N/A   Overcast